星链-34077 (STARLINK-34077)

导读 | 豆包AI

STARLINK-34077是美国太空探索技术公司(SpaceX)于2025年5月14日发射的星链(Starlink)低轨通信卫星,隶属于星链全球低轨宽带互联网星座。卫星采用平板设计,单星重量约227千克,搭载氪工质霍尔推进器与Ku/Ka波段通信载荷,配备光学星间链路与自主避撞系统,预计服役5-7年,旨在补全球面覆盖能力,为偏远地区提供高速低延迟宽带服务。

基本信息
目录编号:
64009
目录名称:
STARLINK-34077
国际标识:
2025-101R
轨道中心:
EARTH
卫星名称:
星链-34077
卫星全名:
星链-34077 (STARLINK-34077)
卫星状态:
在轨 (已飞行350 天)
发射日期:
2025-05-14 UTC
国别 :
美国 (US)
星等 :
--
轨道信息
数据来源 国际轨道数据
星历时间: 2026-04-29T14:29:04+0800
11小时前
查看轨道信息
半长轴: 6861.178km
偏心率: 0.0001423
轨道倾角: 43.002°
近地点辐角 264.985°
升交点赤经 72.066°
平近点角 95.084°
近地点: 482.064km
远地点: 484.018km
周期: 94.267分钟
每日圈数: 15.275828
详细信息
固有亮度:
5
最大亮度:
2.5
卫星平台:
Starlink V1.0
覆盖范围:
全球
运营商:
太空探索技术公司
运营商所在国:
美国
制造商(研发单位):
太空探索技术公司
制造商所在国:
美国
使用方式:
暂无
卫星简介
Starlink 计划是 SpaceX 推出的全球卫星互联网项目,通过发射低轨道卫星,为全球尤其是偏远地区提供高速、低延迟的互联网服务。自 2019 年起,Starlink 已部署数千颗卫星,旨在缩小全球数字鸿沟,推动互联网普及。该项目还为军事、航空等行业提供通信支持,带来广泛经济效益。
2D轨道图
3D轨道图
轨道高度分析图
轨道倾角分析图
轨道综合分析图
查看轨道综合分析图